IRIDIUM 106 1 41917U 17003A 26106.28058113 .00000017 00000+0 -10539-5 0 9997 2 41917 86.3928 114.4442 0002581 91.3997 268.7495 14.34217357484334 IRIDIUM 103 1 41918U 17003B 26106.26789514 .00000051 00000+0 10977-4 0 9994 2 41918 86.3925 114.3495 0002149 97.7613 262.3827 14.34217715484353 IRIDIUM 109 1 41919U 17003C 26106.27423905 .00000033 00000+0 47626-5 0 9997 2 41919 86.3928 114.4054 0002255 92.3574 267.7880 14.34217724484329 IRIDIUM 102 1 41920U 17003D 26106.31229488 .00000015 00000+0 -15504-5 0 9995 2 41920 86.3929 114.3142 0002198 89.3772 270.7676 14.34217257484419 IRIDIUM 105 1 41921U 17003E 26106.20355524 .00000152 00000+0 47155-4 0 9992 2 41921 86.3927 82.7868 0002241 88.5541 271.5911 14.34399019486257 IRIDIUM 104 1 41922U 17003F 26106.25520974 -.00000016 00000+0 -12677-4 0 9993 2 41922 86.3931 114.3799 0001950 93.8182 266.3237 14.34217470484390 IRIDIUM 114 1 41923U 17003G 26106.26155354 .00000060 00000+0 14369-4 0 9998 2 41923 86.3926 114.3606 0002149 94.6628 265.4814 14.34217949484377 IRIDIUM 108 1 41924U 17003H 26105.94099997 .00000130 00000+0 39271-4 0 9990 2 41924 86.3924 82.7882 0002309 84.7473 275.3986 14.34217171486184 IRIDIUM 112 1 41925U 17003J 26106.24886845 .00000057 00000+0 13209-4 0 9992 2 41925 86.3923 114.2106 0002159 92.0074 268.1369 14.34217896484396 IRIDIUM 111 1 41926U 17003K 26106.30595203 .00000019 00000+0 -14255-6 0 9998 2 41926 86.3926 114.2560 0002142 93.0899 267.0542 14.34217529484385 IRIDIUM 113 1 42803U 17039A 26106.21614736 .00000001 00000+0 -66938-5 0 9990 2 42803 86.4003 348.0862 0001795 86.1339 274.0062 14.34217656462308 IRIDIUM 123 1 42804U 17039B 26106.25762724 .00000033 00000+0 47978-5 0 9993 2 42804 86.4018 19.5131 0002289 88.9826 271.1632 14.34217776461071 IRIDIUM 120 1 42805U 17039C 26106.07026933 .00000004 00000+0 -54688-5 0 9994 2 42805 86.3992 347.9377 0002187 83.5342 276.6102 14.34217445462271 IRIDIUM 115 1 42806U 17039D 26106.13680874 .00000209 00000+0 56149-4 0 9991 2 42806 86.4533 348.0307 0002448 90.1937 269.9544 14.43280417465315 IRIDIUM 118 1 42807U 17039E 26106.21957319 .00000175 00000+0 55360-4 0 9998 2 42807 86.4018 19.5273 0002142 85.4434 274.7006 14.34218686461060 IRIDIUM 117 1 42808U 17039F 26106.09906235 .00000062 00000+0 14963-4 0 9995 2 42808 86.4018 19.5360 0002265 88.9427 271.2028 14.34218071461079 IRIDIUM 126 1 42809U 17039G 26106.26396855 .00000021 00000+0 32774-6 0 9993 2 42809 86.4014 19.5171 0001978 88.4900 271.6522 14.34216878461073 IRIDIUM 124 1 42810U 17039H 26106.27869780 .00000236 00000+0 64197-4 0 9998 2 42810 86.4469 316.2647 0002240 89.4035 270.7422 14.43293217466185 IRIDIUM 128 1 42811U 17039J 26106.18493972 -.00000003 00000+0 -81213-5 0 9998 2 42811 86.3972 51.0601 0002338 84.5589 275.5873 14.34217532461090 IRIDIUM 121 1 42812U 17039K 26106.21324660 .00000176 00000+0 55844-4 0 9999 2 42812 86.4019 19.5657 0002277 83.3524 276.7930 14.34215375460945 IRIDIUM 133 1 42955U 17061A 26106.07711270 .00000072 00000+0 18607-4 0 9994 2 42955 86.3978 51.2212 0002261 86.5997 273.5457 14.34218606445872 IRIDIUM 100 1 42956U 17061B 26106.21030974 .00000035 00000+0 52810-5 0 9990 2 42956 86.3975 51.0854 0002281 87.2614 272.8843 14.34217337445899 IRIDIUM 122 1 42957U 17061C 26106.17859678 .00000076 00000+0 19943-4 0 9990 2 42957 86.3973 51.0987 0002267 88.1794 271.9661 14.34217824445897 IRIDIUM 129 1 42958U 17061D 26106.20396775 .00000159 00000+0 49842-4 0 9992 2 42958 86.3976 51.1545 0001954 83.0308 277.1110 14.34218516445918 IRIDIUM 119 1 42959U 17061E 26106.17225405 .00000004 00000+0 -56998-5 0 9991 2 42959 86.3972 51.1635 0002033 88.4779 271.6650 14.34217217445921 IRIDIUM 107 1 42960U 17061F 26106.26105917 .00000163 00000+0 51159-4 0 9996 2 42960 86.3977 51.1471 0002397 91.9813 268.1658 14.34219832445943 IRIDIUM 132 1 42961U 17061G 26106.26739214 .00000137 00000+0 41845-4 0 9992 2 42961 86.3977 51.1243 0002290 87.0438 273.1020 14.34217395445943 IRIDIUM 136 1 42962U 17061H 26106.22933804 .00000152 00000+0 47292-4 0 9999 2 42962 86.3977 51.1466 0002241 88.9284 271.2168 14.34217567445950 IRIDIUM 139 1 42963U 17061J 26106.23568071 .00000159 00000+0 49604-4 0 9997 2 42963 86.3976 51.2049 0002361 86.3814 273.7651 14.34217789445963 IRIDIUM 125 1 42964U 17061K 26106.22299434 -.00000024 00000+0 -15668-4 0 9997 2 42964 86.3976 51.2704 0001984 100.6016 259.5404 14.34217366445976 IRIDIUM 135 1 43070U 17083A 26106.12735161 -.00000013 00000+0 -11818-4 0 9992 2 43070 86.3998 347.9641 0002070 84.9294 275.2138 14.34217816435252 IRIDIUM 138 1 43071U 17083B 26106.22248989 -.00000014 00000+0 -11886-4 0 9997 2 43071 86.4014 347.6108 0001713 90.1243 270.0149 14.34217690435259 IRIDIUM 116 1 43072U 17083C 26106.05124175 .00000064 00000+0 15679-4 0 9996 2 43072 86.4002 347.9831 0002422 83.4773 276.6699 14.34217488435262 IRIDIUM 130 1 43073U 17083D 26106.01952830 .00000136 00000+0 41645-4 0 9992 2 43073 86.4010 348.2653 0002406 88.7769 271.3702 14.34217670435207 IRIDIUM 151 1 43074U 17083E 26106.13369455 .00000088 00000+0 24485-4 0 9990 2 43074 86.4003 348.0049 0002222 83.8384 276.3065 14.34217867435241 IRIDIUM 134 1 43075U 17083F 26106.17175010 .00000058 00000+0 13809-4 0 9992 2 43075 86.4005 347.9961 0002279 87.8929 272.2527 14.34217940435213 IRIDIUM 137 1 43076U 17083G 26106.18443794 .00000170 00000+0 53787-4 0 9995 2 43076 86.4007 348.0824 0002398 74.0843 286.0617 14.34218515435280 IRIDIUM 141 1 43077U 17083H 26106.17809209 -.00000018 00000+0 -13558-4 0 9997 2 43077 86.3998 347.9189 0001961 84.5823 275.5597 14.34217476435285 IRIDIUM 153 1 43078U 17083J 26106.06050176 -.00000010 00000+0 -10732-4 0 9990 2 43078 86.3945 316.4650 0001859 92.8987 267.2421 14.34217691436375 IRIDIUM 131 1 43079U 17083K 26106.09563885 -.00000018 00000+0 -13388-4 0 9998 2 43079 86.4006 348.1352 0001974 83.8815 276.2605 14.34217403435200 IRIDIUM 144 1 43249U 18030A 26106.27615041 .00000166 00000+0 52206-4 0 9996 2 43249 86.3944 316.3056 0002290 86.7060 273.4398 14.34218442421266 IRIDIUM 149 1 43250U 18030B 26106.28249304 .00000202 00000+0 64964-4 0 9999 2 43250 86.3944 316.2707 0002055 88.0351 272.1080 14.34218266421287 IRIDIUM 157 1 43251U 18030C 26106.09221560 .00000109 00000+0 31802-4 0 9994 2 43251 86.3950 316.4020 0002160 88.9354 271.2090 14.34217863421232 IRIDIUM 140 1 43252U 18030D 26106.11124316 .00000019 00000+0 -37652-6 0 9991 2 43252 86.3944 316.4066 0002096 89.3043 270.8393 14.34217675421292 IRIDIUM 145 1 43253U 18030E 26106.09855940 .00000169 00000+0 53231-4 0 9997 2 43253 86.3946 316.3846 0002454 85.6944 274.4532 14.34218778421220 IRIDIUM 146 1 43254U 18030F 26106.07952983 .00000052 00000+0 11672-4 0 9995 2 43254 86.3945 316.4050 0002217 86.8008 273.3442 14.34218212421231 IRIDIUM 148 1 43255U 18030G 26106.04781607 .00000169 00000+0 53315-4 0 9995 2 43255 86.3948 316.4605 0002129 84.8478 275.2961 14.34215250421261 IRIDIUM 142 1 43256U 18030H 26106.08586829 .00000110 00000+0 32329-4 0 9997 2 43256 86.3945 316.3357 0002360 86.7903 273.3563 14.34214828421237 IRIDIUM 150 1 43257U 18030J 26106.05416046 .00000167 00000+0 52647-4 0 9995 2 43257 86.3948 316.4633 0002205 88.6235 271.5214 14.34217747421254 IRIDIUM 143 1 43258U 18030K 26106.10490175 .00000175 00000+0 55485-4 0 9999 2 43258 86.3950 316.5322 0002285 87.3220 272.8237 14.34217698421199 IRIDIUM 161 1 43478U 18047C 26106.25655224 .00000130 00000+0 32644-4 0 9998 2 43478 86.4446 114.3733 0002023 87.4130 272.7302 14.43281160416208 IRIDIUM 152 1 43479U 18047D 26106.28692411 .00000026 00000+0 23054-5 0 9991 2 43479 86.3920 114.2211 0002166 92.1806 267.9638 14.34217592413614 IRIDIUM 147 1 43480U 18047E 26106.29326631 -.00000002 00000+0 -77787-5 0 9990 2 43480 86.3926 114.2226 0002267 89.4834 270.6622 14.34217518413612 IRIDIUM 110 1 43481U 18047F 26106.09030272 .00000032 00000+0 45146-5 0 9997 2 43481 86.3925 114.3977 0001903 90.3938 269.7476 14.34217745413571 IRIDIUM 162 1 43482U 18047G 26106.25025255 .00000028 00000+0 23628-5 0 9997 2 43482 86.4445 114.2677 0002319 93.6563 266.4903 14.43278543416191 IRIDIUM 160 1 43569U 18061A 26106.24544531 .00000021 00000+0 39160-6 0 9993 2 43569 86.3924 82.6957 0002152 85.4951 274.6491 14.34217588404497 IRIDIUM 166 1 43570U 18061B 26106.20105388 .00000076 00000+0 19979-4 0 9998 2 43570 86.3921 82.6654 0002408 87.5554 272.5917 14.34213678404515 IRIDIUM 158 1 43571U 18061C 26106.23910274 .00000221 00000+0 71679-4 0 9997 2 43571 86.3926 82.6597 0002229 91.6158 268.5293 14.34217716404489 IRIDIUM 165 1 43572U 18061D 26106.19470337 .00000172 00000+0 54446-4 0 9992 2 43572 86.3925 82.7233 0002388 86.2701 273.8768 14.34216696404502 IRIDIUM 155 1 43573U 18061E 26106.22641753 .00000055 00000+0 12642-4 0 9991 2 43573 86.3924 82.5822 0002341 91.2886 268.8578 14.34217881404479 IRIDIUM 154 1 43574U 18061F 26106.20739074 .00000142 00000+0 43597-4 0 9994 2 43574 86.3926 82.7207 0002414 85.3230 274.8242 14.34217939404524 IRIDIUM 163 1 43575U 18061G 26106.18835456 .00000147 00000+0 45507-4 0 9991 2 43575 86.3923 82.6459 0002174 89.8470 270.2975 14.34214875404493 IRIDIUM 156 1 43576U 18061H 26106.23275967 .00000011 00000+0 -30895-5 0 9999 2 43576 86.3926 82.6349 0002258 90.5188 269.6267 14.34217307404492 IRIDIUM 164 1 43577U 18061J 26106.21373257 .00000034 00000+0 49356-5 0 9995 2 43577 86.3925 82.6819 0002336 83.7080 276.4382 14.34217603404534 IRIDIUM 159 1 43578U 18061K 26105.97271393 .00000135 00000+0 41131-4 0 9990 2 43578 86.3923 82.7208 0002158 86.9041 273.2401 14.34216508404462 IRIDIUM 180 1 43922U 19002A 26106.18151576 .00000029 00000+0 32940-5 0 9994 2 43922 86.4017 19.5057 0002083 83.0148 277.1285 14.34217724380101 IRIDIUM 176 1 43923U 19002B 26106.17244027 .00000506 00000+0 76391-4 0 9995 2 43923 86.6139 19.4618 0002601 83.4525 276.6988 14.72256301390123 IRIDIUM 168 1 43924U 19002C 26106.17517327 .00000188 00000+0 60048-4 0 9990 2 43924 86.4020 19.5839 0002178 86.4241 273.7204 14.34218208380089 IRIDIUM 173 1 43925U 19002D 26106.02294959 .00000148 00000+0 45890-4 0 9992 2 43925 86.4017 19.5389 0002146 87.8332 272.3109 14.34218897380046 IRIDIUM 169 1 43926U 19002E 26106.20850202 .00000183 00000+0 53284-4 0 9997 2 43926 86.4231 51.0923 0002554 100.2348 259.9139 14.38608691381314 IRIDIUM 172 1 43927U 19002F 26106.22591396 .00000033 00000+0 48437-5 0 9995 2 43927 86.4020 19.4619 0002169 82.9901 277.1542 14.34217745380089 IRIDIUM 175 1 43928U 19002G 26106.09975083 .00000214 00000+0 57205-4 0 9993 2 43928 86.4499 316.4932 0005320 76.8896 283.2899 14.43589356390023 IRIDIUM 171 1 43929U 19002H 26106.13711833 -.00000006 00000+0 -92366-5 0 9999 2 43929 86.4027 19.7982 0002376 85.1319 275.0148 14.34217723380065 IRIDIUM 170 1 43930U 19002J 26106.17862338 .00000574 00000+0 87145-4 0 9998 2 43930 86.6138 19.4621 0002328 83.1171 277.0311 14.72253277390139 IRIDIUM 167 1 43931U 19002K 26106.27031242 .00000079 00000+0 21009-4 0 9999 2 43931 86.4018 19.4652 0002533 87.1330 273.0156 14.34218066380089 IRIDIUM 181 1 56726U 23068S 26106.19530436 .00000176 00000+0 46177-4 0 9993 2 56726 86.4463 82.7036 0002291 79.6279 280.5180 14.43311923153496 IRIDIUM 177 1 56727U 23068T 26106.12918683 .00000585 00000+0 73527-4 0 9994 2 56727 86.2008 358.2636 0002165 89.8896 270.2573 14.80218685157189 IRIDIUM 174 1 56728U 23068U 26106.23422724 .00000530 00000+0 80084-4 0 9999 2 56728 86.6147 19.5800 0002149 85.8735 274.2727 14.72262160156900 IRIDIUM 178 1 56729U 23068V 26106.25342593 .00000693 00000+0 87807-4 0 9997 2 56729 86.6547 51.2303 0002687 81.7753 278.3773 14.80236183157203 IRIDIUM 179 1 56730U 23068W 26106.11284346 .00000621 00000+0 78264-4 0 9993 2 56730 86.6769 60.0868 0002970 88.0932 272.0630 14.80235484157182